2018-094E (43714 NORAD) Tracking and Keplerian Element Data

This shows tracking and keplerian element data for the satellite.

Feedback or suggestion? Click here.




ElementValue
Catalog43714
Name2018-094E
Epoch Orbit313
Epoch Day344.54448616
Epoch Year2018
RAAN349.1531
Inclination97.4068
Eccentricity0.0012589
Argument of Perigee186.4973
Mean Anonmoly273.0565
Mean Motion15.23186981
Decay Rate4.36E-06
L11 43714U 18094E 18344.54448616 .00000436 00000-0 21396-4 0 9997
L22 43714 97.4068 349.1531 0012589 186.4973 273.0565 15.23186981 3133

Live tracking and technical data element details for 2018-094E (NORAD 43714). 2018-094E can be tracked NOW for your location showing map with azimuth and elevation plus other details from your city location.

Track the satellite on the map from your city or location and see movement details for azimuth, elevation, latitude, longitude, range, height, and movement on the map or in text.







IsCatalogInMostPopularTable: catalog: 43714, numindb: 10
Update: records affected: 1



GetName: 43714 2018-094E

Hit Count: updated at: Tue, 11 Dec 2018 03:37:13 GMT